Weather History for Hatteras, NC

Change the Weather History Date:

Tuesday, December 28, 2010

  Actual Average Record
Temperature  
Mean Temperature 38 °F 47 °F  
Max Temperature 43 °F 53 °F 72 °F (1988)
Min Temperature 32 °F 40 °F 18 °F (1925)
Degree Days  
Heating Degree Days 27 18  
Month to date heating degree days 682 433  
Since 1 July heating degree days 949 751  
Cooling Degree Days 0 0  
Month to date cooling degree days 0 0  
Year to date cooling degree days 1852 1711  
Moisture  
Dew Point 24 °F    
Average Humidity 63    
Maximum Humidity 76    
Minimum Humidity 50    
Precipitation  
Precipitation 0.00 in 0.13 in 2.96 in (1992)
Month to date precipitation 3.47 3.85  
Year to date precipitation 61.39 57.62  
Snow  
Snow 0.00 in - - ()
Month to date snowfall 0.0  
Since 1 July snowfall 0.0  
Snow Depth 0.00 in    
Sea Level Pressure  
Sea Level Pressure 30.10 in    
Wind  
Wind Speed 10 mph (WNW)    
Max Wind Speed 21 mph    
Max Gust Speed 33 mph    
Visibility 10 miles    
Events      
T = Trace of Precipitation, MM = Missing Value Source: NWS Daily Summary

Daily Weather History Graph

Daily Weather History Graph

Search for Another Location

Airport:

Trip Planner

Search our weather history database for the weather conditions in past years. The results will help you decide how hot, cold, wet, or windy it might be!

Date:

Astronomy

Dec. 28, 2010 Rise Set
Actual Time 7:10 AM EST 4:58 PM EST
Civil Twilight 6:41 AM EST 5:26 PM EST
Nautical Twilight 6:10 AM EST 5:58 PM EST
Astronomical Twilight 5:39 AM EST 6:29 PM EST
Moon 12:15 AM EST (12/28) 11:47 AM EST (12/28)
Length of Visible Light 10h 44m
Length of Day
9h 48m
Last Quarter, 44% of the Moon is Illuminated
Dec 28
Last Quarter
Jan 4
New
Jan 12
First Quarter
Jan 19
Full
Jan 26
Last Quarter

Hourly Weather History & Observations

Time (EST) Temp. Windchill Dew Point Humidity Pressure Visibility Wind Dir Wind Speed Gust Speed Precip Events Conditions
12:51 AM 34.0 °F 24.2 °F 19.9 °F 56% 30.01 in 10.0 mi NW 15.0 mph 28.8 mph N/A   Clear
1:51 AM 34.0 °F 23.8 °F 19.9 °F 56% 30.03 in 10.0 mi NW 16.1 mph 26.5 mph N/A   Clear
2:51 AM 34.0 °F 23.8 °F 21.0 °F 59% 30.04 in 10.0 mi NW 16.1 mph 27.6 mph N/A   Clear
3:51 AM 33.1 °F 23.4 °F 21.0 °F 61% 30.06 in 10.0 mi NW 13.8 mph 26.5 mph N/A   Clear
4:51 AM 33.1 °F 22.6 °F 21.0 °F 61% 30.07 in 10.0 mi NW 16.1 mph 26.5 mph N/A   Clear
5:51 AM 33.1 °F 23.4 °F 21.0 °F 61% 30.09 in 10.0 mi NW 13.8 mph 23.0 mph N/A   Clear
6:51 AM 33.1 °F 24.4 °F 21.0 °F 61% 30.11 in 10.0 mi NW 11.5 mph 24.2 mph N/A   Clear
7:51 AM 33.1 °F 23.9 °F 21.0 °F 61% 30.14 in 10.0 mi NW 12.7 mph 18.4 mph N/A   Clear
8:51 AM 33.1 °F 24.9 °F 21.0 °F 61% 30.17 in 10.0 mi WNW 10.4 mph 19.6 mph N/A   Clear
9:51 AM 36.0 °F 29.0 °F 21.0 °F 55% 30.18 in 10.0 mi WNW 9.2 mph 17.3 mph N/A   Clear
10:51 AM 37.0 °F 31.0 °F 21.0 °F 52% 30.17 in 10.0 mi WNW 8.1 mph 18.4 mph N/A   Clear
11:51 AM 39.0 °F 34.0 °F 24.1 °F 55% 30.15 in 10.0 mi WNW 6.9 mph - N/A   Clear
12:51 PM 39.0 °F 31.8 °F 27.0 °F 62% 30.13 in 10.0 mi West 11.5 mph 16.1 mph N/A   Clear
1:51 PM 39.9 °F 33.4 °F 25.0 °F 55% 30.11 in 10.0 mi West 10.4 mph 17.3 mph N/A   Clear
2:51 PM 42.1 °F 38.4 °F 26.1 °F 53% 30.09 in 10.0 mi West 5.8 mph - N/A   Clear
3:51 PM 41.0 °F 35.8 °F 25.0 °F 53% 30.08 in 10.0 mi West 8.1 mph - N/A   Clear
4:51 PM 39.0 °F 34.0 °F 24.1 °F 55% 30.08 in 10.0 mi West 6.9 mph - N/A   Clear
5:51 PM 39.9 °F 33.9 °F 23.0 °F 51% 30.08 in 10.0 mi West 9.2 mph - N/A   Clear
6:51 PM 39.9 °F 33.4 °F 26.1 °F 58% 30.09 in 10.0 mi West 10.4 mph - N/A   Clear
7:51 PM 39.9 °F 34.5 °F 26.1 °F 58% 30.09 in 10.0 mi West 8.1 mph - N/A   Clear
8:51 PM 39.9 °F 33.4 °F 25.0 °F 55% 30.10 in 10.0 mi West 10.4 mph - N/A   Clear
9:51 PM 37.9 °F 33.5 °F 30.0 °F 73% 30.12 in 10.0 mi West 5.8 mph - N/A   Clear
10:51 PM 37.9 °F 32.7 °F 28.9 °F 70% 30.12 in 10.0 mi West 6.9 mph - N/A   Clear
11:51 PM 37.0 °F 31.6 °F 28.0 °F 70% 30.11 in 10.0 mi West 6.9 mph - N/A   Clear